User: anonymous   Login
Location: Newark
(48.8833°N, 0.9236°W)
Time: 23:54:14
(UTC+00:00)
Language:

Transit 4A - Orbit

View from above orbital plane
View from above orbital plane
View from above satellite
View from above satellite

Ground track
Ground track

The orbit data is extracted from the following two-line orbital elements,

1   116U 61015A   19320.18295883 -.00000061  00000-0  12230-4 0  9990
2   116  66.8115  12.0105 0073839 164.0787 196.2638 13.91761822962494
Epoch (UTC): 16 November 2019 04:23:27
Eccentricity: 0.0073839
inclination: 66.8115°
perigee height: 868 km
apogee height: 976 km
right ascension of ascending node: 12.0105°
argument of perigee: 164.0787°
revolutions per day: 13.91761822
mean anomaly at epoch: 196.2638°
orbit number at epoch: 96249

The dashed part of the orbit path shows where the satellite is in the earth's shadow,  

DLR